Terminal Aerodrome Forecast
Issued by NWS

Home | Current Version | Previous Version | Text Only | Print | Product List | Glossary On
Versions: 1 2 3 4 5 6 7 8 9 10 11 12 13 14 15 16 17 18 19
000
FTUS41 KALY 210500
TAFPSF
TAF
KPSF 210524Z 2106/2206 20008KT P6SM BKN020
     FM210900 20004KT 5SM BR VCSH OVC015
     FM211400 20006KT P6SM BKN015 OVC020
     FM211700 21007KT P6SM SCT020 SCT250
     FM212200 22005KT P6SM VCSH BKN035
     FM220200 27005KT P6SM SCT020 BKN080
     FM220500 27003KT 4SM BR BKN020=

USA.gov is the U.S. government's official web portal to all federal, state and local government web resources and services.